Weather History for KIKW - November, 2011

Change the Weather History Date:

Monday, November 14, 2011

  Actual Average (KMBS) Record (KMBS)
Temperature  
Mean Temperature 44 °F 39 °F  
Max Temperature 54 °F 47 °F 57 °F (1999)
Min Temperature 35 °F 32 °F 17 °F (1996)
Degree Days  
Heating Degree Days 20    
Month to date heating degree days  
Since 1 July heating degree days  
Cooling Degree Days 0    
Month to date cooling degree days  
Year to date cooling degree days  
Moisture  
Dew Point 39 °F    
Average Humidity 75    
Maximum Humidity 96    
Minimum Humidity 60    
Precipitation  
Precipitation 0.00 in 0.10 in 0.36 in (1997)
Month to date precipitation 1.30  
Year to date precipitation 28.28  
Snow  
Snow 0.00 in - - ()
Month to date snowfall  
Since 1 July snowfall  
Since 1 September snowfall  
Snow Depth -    
Sea Level Pressure  
Sea Level Pressure 29.59 in    
Wind  
Wind Speed 7 mph (SW)    
Max Wind Speed 16 mph    
Max Gust Speed 25 mph    
Visibility 10 miles    
Events      
T = Trace of Precipitation, MM = Missing Value Source: NWS Daily Summary

Daily Weather History Graph

Daily Weather History Graph

Search for Another Location

Airport or City:

Trip Planner

Search our weather history database for the weather conditions in past years. The results will help you decide how hot, cold, wet, or windy it might be!

Date:

Astronomy

Nov. 14, 2011 Rise Set
Actual Time 7:29 AM EST 5:12 PM EST
Civil Twilight 6:58 AM EST 5:43 PM EST
Nautical Twilight 6:23 AM EST 6:18 PM EST
Astronomical Twilight 5:50 AM EST 6:52 PM EST
Moon 8:16 PM EST (11/14) 10:50 AM EST (11/14)
Length of Visible Light 10h 45m
Length of Day
9h 43m
Waning Gibbous, 87% of the Moon is Illuminated
Nov 14
Waning Gibbous
Nov 18
Last Quarter
Nov 25
New
Dec 2
First Quarter
Dec 10
Full

Hourly Weather History & Observations

Time (EST) Temp. Windchill Dew Point Humidity Pressure Visibility Wind Dir Wind Speed Gust Speed Precip Events Conditions
12:13 AM 54.7 °F - 41.2 °F 60% 29.50 in 10.0 mi WSW 11.5 mph 20.7 mph N/A   Overcast
12:33 AM 54.7 °F - 41.4 °F 61% 29.51 in 10.0 mi WSW 9.2 mph 21.9 mph N/A   Mostly Cloudy
12:53 AM 53.8 °F - 41.2 °F 62% 29.52 in 10.0 mi WSW 16.1 mph 25.3 mph N/A   Scattered Clouds
1:14 AM 53.6 °F - 41.0 °F 62% 29.52 in 10.0 mi SW 11.5 mph 17.3 mph N/A   Scattered Clouds
1:33 AM 52.9 °F - 41.0 °F 64% 29.54 in 10.0 mi SW 9.2 mph - N/A   Scattered Clouds
1:53 AM 51.8 °F - 41.0 °F 67% 29.54 in 10.0 mi SW 10.4 mph 18.4 mph N/A   Scattered Clouds
2:13 AM 51.3 °F - 40.6 °F 67% 29.54 in 10.0 mi WSW 9.2 mph 16.1 mph N/A   Clear
2:33 AM 50.5 °F - 40.6 °F 69% 29.54 in 10.0 mi SW 6.9 mph - N/A   Clear
2:53 AM 49.6 °F - 40.3 °F 70% 29.55 in 10.0 mi SW 8.1 mph - N/A   Clear
3:14 AM 48.7 °F - 40.1 °F 72% 29.55 in 10.0 mi SSW 6.9 mph - N/A   Clear
3:33 AM 48.2 °F - 39.7 °F 73% 29.55 in 10.0 mi SSW 8.1 mph - N/A   Clear
3:53 AM 48.0 °F - 39.7 °F 73% 29.57 in 10.0 mi SSW 9.2 mph - N/A   Clear
4:12 AM 47.8 °F - 39.4 °F 72% 29.57 in 10.0 mi SSW 11.5 mph 19.6 mph N/A   Clear
4:33 AM 47.5 °F - 39.6 °F 74% 29.57 in 10.0 mi SSW 12.7 mph - N/A   Clear
4:53 AM 46.8 °F - 39.2 °F 75% 29.58 in 10.0 mi SW 8.1 mph - N/A   Clear
5:12 AM 46.4 °F 42.4 °F 38.8 °F 75% 29.59 in 10.0 mi SW 8.1 mph - N/A   Clear
5:33 AM 45.9 °F 42.3 °F 38.7 °F 76% 29.59 in 10.0 mi SW 6.9 mph - N/A   Clear
5:53 AM 45.7 °F 41.0 °F 38.8 °F 77% 29.60 in 10.0 mi SW 9.2 mph - N/A   Clear
6:13 AM 45.5 °F 42.5 °F 38.8 °F 78% 29.59 in 10.0 mi SW 5.8 mph - N/A   Clear
6:33 AM 44.6 °F 42.2 °F 38.1 °F 78% 29.60 in 10.0 mi SW 4.6 mph - N/A   Clear
7:13 AM 43.3 °F 40.7 °F 37.8 °F 81% 29.61 in 10.0 mi SW 4.6 mph - N/A   Clear
7:33 AM 44.1 °F 40.8 °F 38.5 °F 81% 29.62 in 10.0 mi WSW 5.8 mph - N/A   Clear
7:53 AM 44.1 °F 40.1 °F 38.7 °F 81% 29.64 in 10.0 mi SW 6.9 mph - N/A   Clear
8:33 AM 45.5 °F 41.8 °F 39.2 °F 79% 29.64 in 10.0 mi WSW 6.9 mph - N/A   Clear
8:53 AM 45.7 °F 42.7 °F 39.2 °F 78% 29.64 in 10.0 mi SW 5.8 mph - N/A   Clear
9:33 AM 45.5 °F 42.5 °F 38.8 °F 78% 29.65 in 10.0 mi SSW 5.8 mph - N/A   Clear
9:53 AM 46.0 °F 43.1 °F 39.2 °F 77% 29.66 in 10.0 mi SSW 5.8 mph - N/A   Clear
10:13 AM 46.8 °F - 39.4 °F 75% 29.65 in 10.0 mi SW 5.8 mph - N/A   Clear
10:32 AM 47.7 °F - 39.4 °F 73% 29.66 in 10.0 mi SSW 5.8 mph - N/A   Clear
10:53 AM 48.6 °F - 39.4 °F 71% 29.66 in 10.0 mi WSW 4.6 mph - N/A   Clear
11:53 AM 49.3 °F - 37.6 °F 64% 29.62 in 10.0 mi Calm Calm - N/A   Mostly Cloudy
12:13 PM 49.6 °F - 37.8 °F 64% 29.61 in 10.0 mi Calm Calm - N/A   Overcast
12:33 PM 49.3 °F - 38.1 °F 65% 29.61 in 10.0 mi South 4.6 mph - N/A   Overcast
12:53 PM 49.6 °F - 38.3 °F 65% 29.60 in 10.0 mi Calm Calm - N/A   Overcast
1:13 PM 50.0 °F - 37.8 °F 63% 29.61 in 10.0 mi Calm Calm - N/A   Overcast
1:33 PM 50.0 °F - 38.5 °F 65% 29.61 in 10.0 mi Calm Calm - N/A   Overcast
1:52 PM 50.0 °F - 38.3 °F 64% 29.60 in 10.0 mi Calm Calm - N/A   Overcast
2:13 PM 49.3 °F - 39.0 °F 68% 29.61 in 10.0 mi Calm Calm - N/A   Overcast
2:33 PM 49.3 °F - 40.3 °F 71% 29.61 in 10.0 mi NW 4.6 mph - N/A   Overcast
2:52 PM 50.0 °F - 38.7 °F 65% 29.60 in 10.0 mi Calm Calm - N/A   Overcast
3:33 PM 50.0 °F - 38.3 °F 64% 29.59 in 10.0 mi Calm Calm - N/A   Overcast
3:52 PM 49.6 °F - 37.8 °F 64% 29.58 in 10.0 mi Calm Calm - N/A   Overcast
4:13 PM 49.3 °F - 39.7 °F 70% 29.57 in 10.0 mi Calm Calm - N/A   Overcast
4:33 PM 49.3 °F - 39.0 °F 68% 29.57 in 10.0 mi Calm Calm - N/A   Overcast
4:52 PM 48.6 °F - 39.7 °F 72% 29.58 in 10.0 mi Calm Calm - N/A   Overcast
5:13 PM 47.7 °F - 39.7 °F 74% 29.57 in 10.0 mi Calm Calm - N/A   Mostly Cloudy
5:33 PM 44.8 °F - 39.7 °F 82% 29.58 in 10.0 mi Calm Calm - N/A   Scattered Clouds
5:52 PM 43.0 °F - 39.2 °F 86% 29.57 in 10.0 mi Calm Calm - N/A   Clear
6:13 PM 40.8 °F - 37.4 °F 88% 29.57 in 10.0 mi Calm Calm - N/A   Clear
6:33 PM 40.1 °F - 37.9 °F 92% 29.58 in 10.0 mi Calm Calm - N/A   Clear
6:53 PM 38.7 °F - 37.0 °F 94% 29.59 in 10.0 mi Calm Calm - N/A   Clear
7:13 PM 38.3 °F - 36.5 °F 93% 29.59 in 10.0 mi Calm Calm - N/A   Clear
7:33 PM 39.7 °F - 37.9 °F 93% 29.59 in 10.0 mi Calm Calm - N/A   Clear
7:53 PM 38.3 °F - 36.3 °F 93% 29.60 in 10.0 mi Calm Calm - N/A   Clear
8:13 PM 36.3 °F - 34.9 °F 95% 29.61 in 10.0 mi Calm Calm - N/A   Clear
8:33 PM 36.3 °F - 35.1 °F 95% 29.61 in 10.0 mi Calm Calm - N/A   Clear
8:53 PM 36.3 °F - 35.1 °F 95% 29.62 in 7.0 mi Calm Calm - N/A   Clear
9:12 PM 35.6 °F - 34.3 °F 95% 29.62 in 7.0 mi Calm Calm - N/A   Clear
9:33 PM 35.8 °F - 34.7 °F 96% 29.63 in 3.0 mi Calm Calm - N/A   Clear
9:53 PM 35.2 °F - 34.2 °F 96% 29.63 in 4.0 mi Calm Calm - N/A   Clear
10:13 PM 35.2 °F - 34.2 °F 96% 29.64 in 5.0 mi Calm Calm - N/A   Clear
10:33 PM 36.0 °F - 34.9 °F 96% 29.64 in 5.0 mi Calm Calm - N/A   Clear
10:53 PM 35.4 °F - 34.3 °F 96% 29.65 in 10.0 mi Calm Calm - N/A   Clear
11:13 PM 37.9 °F - 36.9 °F 96% 29.65 in 10.0 mi Calm Calm - N/A   Clear
11:53 PM 40.6 °F - 38.1 °F 91% 29.66 in 10.0 mi Calm Calm - N/A   Clear